Wind_Speed
14 17 18 18 18 18 18 19 19 20 19 19 19 19 19 18 18 18 18 19 19 19 19 20 20 21 21 21 22 23 24 24 24 24 24 25 25 25 25 26 26 26 26
12 15 16 16 17 17 17 18 19 19 20 20 20 20 20 20 21 21 21 22 22 22 23 23 23 24 25 25 25 26 27 27 28 28 28 28 28 29 29 29 29 30 29
12 14 15 16 16 17 18 18 20 20 21 21 22 22 22 22 22 23 24 25 25 25 26 26 26 27 27 27 28 29 29 30 31 31 31 31 32 32 32 32 33 33 33
11 13 14 16 17 18 19 19 20 20 21 22 23 23 23 23 24 25 26 26 27 28 29 29 29 30 31 31 31 31 32 32 33 34 34 34 34 35 35 35 35 35 35
10 12 14 16 17 18 19 20 20 21 21 22 23 24 25 25 26 27 28 29 30 31 31 32 32 32 33 34 34 34 35 35 36 36 37 37 38 38 38 38 38 38 39
11 12 14 15 17 18 19 20 20 21 22 22 24 25 26 27 27 29 30 31 33 33 34 35 36 35 36 36 37 38 39 39 39 39 40 40 40 41 41 42 42 42 42
12 13 14 15 16 18 19 20 21 22 23 24 25 27 28 29 31 32 33 34 35 35 36 37 38 39 40 40 41 42 42 43 43 42 42 42 43 43 43 43 43 43 43
13 14 15 16 17 18 20 21 22 23 25 27 28 30 31 32 34 35 36 36 37 38 39 40 40 41 41 43 44 44 44 44 45 44 44 44 45 45 45 45 44 45 45
16 16 17 18 19 21 21 23 24 25 27 28 29 30 32 32 33 34 36 36 37 39 39 41 42 42 42 43 45 45 45 45 47 47 47 46 47 46 46 47 48 48 48
17 18 19 20 22 24 24 25 26 28 29 30 31 32 33 34 35 37 38 39 39 39 40 41 42 42 43 45 45 45 45 46 47 47 47 48 49 49 49 49 49 50 50
20 19 20 21 22 23 25 26 27 29 30 32 33 34 35 36 36 38 39 40 41 42 42 42 43 43 44 45 46 46 46 47 48 49 49 50 51 51 51 52 53 53 53
22 22 22 23 24 25 26 27 28 29 31 32 34 35 37 38 39 39 40 42 43 44 44 44 44 45 45 46 47 48 48 49 51 52 53 53 53 53 53 53 54 55 55
24 24 24 25 26 27 27 29 30 30 32 33 34 36 37 38 40 41 42 43 44 45 45 45 46 47 47 47 48 49 50 51 52 52 53 54 55 55 56 56 57 57 57
24 25 26 27 27 28 29 30 31 32 33 34 36 37 38 39 40 41 42 43 44 45 46 47 47 47 48 49 50 51 52 53 53 54 55 55 55 56 57 58 58 58 58
28 28 29 29 30 30 31 32 33 33 34 35 36 37 39 40 41 42 43 44 45 46 47 48 48 49 49 50 50 51 52 52 53 53 54 55 56 57 57 58 58 58 58
29 30 30 31 31 31 32 32 33 34 34 36 37 39 40 41 43 44 45 46 47 47 48 49 50 50 50 51 52 53 53 53 54 54 55 55 56 57 57 58 58 57 56
30 29 30 30 31 32 32 33 34 35 36 37 39 40 41 43 44 46 47 48 48 49 49 50 51 52 52 53 53 54 54 55 55 55 55 55 55 55 55 55 55 54 54
28 29 29 30 31 32 33 34 35 36 38 39 41 42 43 45 47 48 48 49 50 51 51 52 53 54 54 55 55 55 55 55 55 54 53 53 52 52 52 51 51 50 50
27 28 29 30 32 34 35 36 37 39 41 43 44 46 47 48 49 50 50 51 52 52 53 54 54 55 55 55 55 55 54 53 52 51 50 49 48 48 47 46 45 45 44
27 29 30 32 33 34 36 38 40 42 44 45 47 49 50 51 51 52 52 52 53 54 54 54 54 54 53 52 51 50 50 49 48 46 45 44 43 42 41 40 39 39 39
29 30 32 33 35 37 39 41 43 45 47 48 50 51 52 52 52 52 53 53 53 52 52 51 51 50 49 48 47 46 45 44 43 42 41 40 39 38 38 37 38 38 38
31 32 34 36 38 40 42 44 45 47 49 50 51 52 52 51 51 51 51 50 48 47 47 46 45 45 44 44 43 42 41 40 39 38 37 37 37 36 35 35 34 34 34
33 35 37 39 41 43 44 45 47 48 49 50 50 50 49 48 48 48 46 45 44 43 42 41 41 40 40 39 37 36 36 35 34 34 34 33 32 31 31 30 30 30 29
36 38 40 41 42 44 45 46 47 47 48 47 47 46 45 44 44 42 41 41 40 39 39 38 37 36 35 34 33 32 32 31 30 30 29 28 27 27 27 27 27 27 27
39 40 41 42 43 44 45 45 46 46 45 45 44 43 42 41 39 38 37 37 36 35 35 34 33 32 30 29 28 28 27 27 26 25 24 23 23 24 24 23 23 22 22
40 41 42 43 43 43 44 44 44 43 43 42 41 40 39 37 36 35 33 32 31 31 30 29 28 27 26 25 25 24 23 22 21 20 20 20 20 20 19 19 18 18 17
Wind_Direction
214 213 209 209 212 214 216 215 215 217 218 220 224 229 234 239 244 248 251 255 259 263 267 270 272 274 276 278 279 280 281 282 283 283 283 284 284 285 285 284 284 284 284
217 214 210 210 213 216 217 217 220 222 224 227 229 235 239 244 249 252 255 258 261 264 268 271 273 275 277 277 278 279 279 281 281 281 281 281 282 283 284 284 284 283 282
222 217 215 216 219 219 219 221 225 229 231 233 236 240 245 249 252 256 259 261 263 265 268 271 273 274 276 277 278 279 280 280 280 281 281 281 282 283 283 283 283 282 281
228 225 222 223 224 223 225 227 231 234 237 238 242 246 249 252 255 259 261 263 265 266 268 271 273 273 275 277 278 280 281 281 281 281 281 282 282 282 282 282 281 280 280
232 231 231 229 229 231 233 235 238 241 242 244 247 250 252 257 260 263 264 266 267 268 269 271 273 275 275 277 278 279 280 280 280 280 280 281 282 282 281 281 281 280 280
240 240 239 237 237 239 241 243 245 247 250 252 252 254 258 261 263 265 266 269 271 270 271 273 274 276 277 278 278 278 279 280 281 280 280 281 281 281 282 281 280 280 280
250 248 248 247 245 245 247 250 252 254 256 259 260 261 263 265 266 268 269 270 272 273 274 275 276 276 278 278 278 278 279 279 279 279 279 280 280 281 281 280 280 280 280
256 252 249 250 251 253 255 256 258 259 260 262 264 266 268 269 270 271 272 273 274 275 275 276 278 279 279 279 280 280 279 279 279 279 279 280 280 280 280 279 279 279 279
260 261 258 254 254 257 260 262 264 264 265 265 267 268 271 272 272 273 274 275 276 277 278 278 278 279 280 282 281 280 280 279 278 279 279 279 280 279 279 279 279 279 279
261 262 263 261 260 261 264 266 266 266 267 268 269 271 272 273 274 276 277 277 277 278 279 280 281 281 281 281 281 280 279 279 279 278 278 279 280 281 280 280 280 280 281
262 264 265 264 264 266 268 269 269 269 270 270 272 272 273 275 276 277 278 279 281 281 282 282 283 283 283 283 283 281 280 280 280 280 280 280 280 280 280 281 281 281 281
263 264 266 266 267 269 271 272 273 275 275 276 276 276 277 277 278 279 281 282 283 283 283 284 284 283 283 283 282 282 281 280 281 281 281 280 280 281 281 282 282 282 281
263 265 267 269 269 271 273 275 276 277 277 278 278 279 280 280 281 282 283 283 284 285 284 284 283 284 283 283 282 282 282 281 281 282 282 281 281 280 280 281 282 283 283
264 267 269 271 272 274 275 276 277 278 279 279 280 280 281 282 283 284 285 286 286 285 284 284 284 284 284 283 283 283 282 282 281 282 282 281 281 281 281 281 282 282 283
265 268 270 271 272 275 276 278 279 280 281 281 282 282 283 283 284 284 284 284 284 285 285 285 284 285 285 285 285 284 284 283 283 283 283 282 282 282 282 283 283 283 283
266 268 270 272 275 277 280 280 280 281 282 283 283 283 284 284 284 285 285 285 285 285 285 286 286 286 286 286 286 286 286 286 285 285 285 284 284 284 283 283 283 283 283
266 268 271 275 277 279 281 282 283 284 284 284 284 285 285 286 286 286 287 286 287 287 287 287 287 288 288 288 289 289 288 288 287 287 287 286 285 285 284 284 283 283 282
268 271 274 277 279 281 283 284 285 286 287 287 287 288 288 288 289 289 289 288 289 289 288 288 289 289 289 289 289 290 289 289 288 288 288 287 287 286 285 284 283 283 283
272 275 278 280 282 284 285 287 287 288 289 290 290 291 291 291 291 291 291 291 291 291 290 290 290 289 289 290 290 290 290 289 288 288 288 287 286 286 286 284 283 283 283
277 280 282 284 286 287 289 290 290 291 291 292 292 292 292 292 292 292 292 292 292 292 291 291 291 290 290 290 290 289 289 289 288 287 286 286 286 285 285 284 283 282 283
283 284 285 287 289 291 292 293 294 294 294 294 294 294 294 294 294 294 294 294 294 294 293 293 293 292 292 291 290 289 289 288 287 285 285 285 285 285 285 284 284 284 285
287 288 289 290 291 293 294 295 295 296 296 296 296 296 296 296 295 296 296 296 296 296 296 295 295 294 292 291 290 289 288 287 285 285 284 284 284 284 285 286 286 286 286
290 291 292 293 294 295 296 297 297 298 298 298 299 298 298 297 296 297 297 297 296 297 297 297 297 296 294 293 292 291 290 288 286 284 284 284 283 283 285 286 287 288 287
294 295 296 297 297 298 298 299 299 299 300 300 300 300 300 299 299 298 298 298 298 298 298 298 297 297 296 295 293 292 291 290 288 286 284 282 281 282 285 287 288 288 287
296 297 297 298 299 300 300 300 300 301 301 301 301 301 301 300 300 299 300 300 299 299 300 299 298 297 297 296 295 294 294 293 292 290 287 284 283 284 286 288 289 290 289
298 298 299 299 300 301 301 302 302 302 302 302 302 302 301 301 300 300 300 301 301 301 302 301 300 298 297 296 296 296 295 295 294 292 289 287 286 286 287 289 292 294 293
Height
5829 5831 5834 5837 5840 5842 5845 5848 5850 5853 5856 5859 5861 5864 5866 5867 5869 5870 5871 5871 5872 5872 5873 5873 5872 5872 5871 5871 5870 5869 5869 5868 5867 5866 5865 5864 5862 5861 5860 5859 5857 5856 5856
5828 5829 5832 5835 5838 5840 5843 5845 5848 5850 5853 5855 5858 5860 5862 5863 5864 5865 5866 5867 5867 5867 5867 5867 5867 5867 5866 5865 5864 5863 5862 5861 5860 5859 5858 5857 5856 5854 5853 5852 5850 5849 5848
5827 5829 5831 5833 5836 5838 5840 5842 5845 5847 5849 5852 5854 5856 5857 5858 5859 5860 5861 5861 5862 5861 5861 5861 5861 5860 5859 5859 5858 5857 5855 5854 5853 5852 5851 5849 5848 5846 5845 5844 5842 5841 5839
5826 5828 5829 5831 5833 5836 5838 5840 5842 5844 5846 5848 5849 5851 5852 5853 5854 5854 5855 5855 5855 5855 5854 5854 5853 5853 5852 5851 5850 5849 5848 5846 5845 5844 5842 5841 5839 5838 5836 5835 5833 5832 5830
5825 5826 5828 5829 5831 5833 5835 5836 5838 5840 5841 5843 5844 5846 5847 5847 5848 5848 5848 5848 5848 5847 5847 5846 5846 5845 5844 5843 5842 5841 5839 5838 5836 5835 5833 5832 5830 5828 5827 5825 5823 5822 5820
5823 5824 5825 5826 5828 5830 5831 5833 5834 5836 5837 5838 5839 5840 5841 5841 5842 5841 5841 5841 5840 5840 5839 5838 5837 5837 5835 5834 5833 5831 5830 5828 5827 5825 5823 5822 5820 5818 5816 5814 5813 5811 5810
5821 5821 5822 5824 5825 5826 5828 5829 5830 5831 5832 5833 5834 5834 5834 5835 5834 5834 5833 5832 5832 5831 5830 5829 5827 5827 5826 5824 5822 5820 5819 5817 5816 5814 5813 5811 5809 5807 5805 5803 5801 5800 5798
5818 5818 5819 5820 5822 5823 5824 5825 5826 5826 5827 5827 5827 5827 5827 5827 5826 5825 5824 5824 5823 5822 5820 5819 5817 5816 5814 5813 5811 5809 5807 5805 5804 5802 5801 5799 5797 5795 5793 5791 5789 5787 5786
5814 5814 5815 5816 5817 5818 5819 5819 5820 5820 5820 5820 5820 5820 5819 5819 5818 5817 5815 5814 5813 5812 5810 5808 5807 5805 5803 5801 5798 5797 5795 5793 5791 5789 5788 5786 5784 5781 5779 5777 5776 5774 5772
5810 5810 5810 5811 5812 5812 5813 5813 5813 5813 5813 5812 5812 5812 5811 5810 5809 5808 5806 5804 5803 5801 5799 5797 5795 5793 5791 5788 5786 5783 5782 5780 5777 5776 5774 5772 5770 5767 5765 5763 5761 5759 5757
5805 5805 5805 5806 5806 5806 5806 5806 5806 5805 5805 5804 5803 5803 5802 5800 5799 5797 5796 5794 5792 5790 5788 5786 5783 5781 5778 5775 5773 5771 5769 5766 5764 5761 5759 5757 5755 5753 5750 5748 5746 5743 5741
5798 5799 5799 5799 5799 5799 5799 5798 5798 5797 5796 5795 5794 5793 5792 5790 5788 5786 5785 5783 5780 5778 5776 5773 5771 5768 5765 5762 5760 5757 5755 5752 5749 5747 5744 5742 5740 5737 5735 5732 5730 5727 5725
5792 5792 5793 5792 5792 5791 5791 5790 5790 5789 5788 5786 5785 5783 5781 5780 5778 5776 5774 5771 5768 5766 5763 5760 5757 5754 5752 5749 5746 5743 5740 5737 5734 5731 5729 5726 5724 5721 5719 5716 5713 5711 5708
5785 5786 5786 5785 5785 5784 5783 5782 5781 5780 5778 5777 5775 5773 5771 5769 5767 5764 5762 5759 5756 5753 5750 5747 5744 5741 5738 5734 5731 5728 5724 5721 5718 5715 5713 5710 5707 5704 5701 5699 5696 5693 5691
5778 5778 5778 5777 5776 5776 5775 5773 5772 5770 5769 5767 5765 5763 5761 5758 5756 5753 5750 5747 5744 5740 5737 5734 5730 5727 5723 5720 5716 5712 5708 5705 5702 5699 5696 5693 5690 5687 5684 5681 5678 5675 5672
5770 5770 5770 5769 5768 5767 5765 5764 5762 5761 5759 5757 5755 5752 5749 5747 5744 5741 5738 5734 5730 5726 5723 5719 5716 5712 5708 5704 5700 5696 5692 5688 5685 5682 5678 5675 5672 5669 5666 5663 5660 5657 5654
5762 5762 5761 5760 5759 5758 5756 5754 5752 5750 5748 5746 5743 5740 5738 5735 5731 5728 5724 5720 5716 5712 5708 5704 5700 5696 5692 5688 5684 5680 5675 5671 5668 5665 5661 5658 5654 5651 5648 5645 5642 5640 5637
5754 5753 5752 5751 5750 5748 5746 5744 5742 5739 5737 5734 5731 5728 5724 5721 5717 5713 5709 5705 5701 5697 5693 5688 5684 5680 5676 5672 5668 5663 5659 5655 5651 5647 5644 5641 5637 5634 5631 5628 5626 5623 5621
5745 5745 5743 5742 5740 5738 5736 5734 5731 5728 5725 5721 5718 5714 5711 5706 5702 5698 5694 5689 5685 5680 5676 5672 5668 5663 5659 5655 5651 5647 5642 5638 5635 5631 5628 5625 5622 5619 5616 5613 5611 5609 5606
5737 5736 5734 5733 5730 5728 5725 5723 5720 5716 5712 5708 5704 5700 5696 5692 5687 5682 5678 5673 5669 5664 5660 5655 5651 5646 5642 5638 5634 5630 5627 5623 5619 5616 5613 5610 5607 5605 5602 5600 5597 5595 5593
5728 5727 5725 5723 5720 5717 5714 5711 5707 5703 5699 5695 5690 5686 5681 5676 5671 5666 5661 5657 5652 5647 5643 5638 5634 5630 5626 5622 5618 5615 5611 5608 5605 5602 5599 5597 5594 5592 5589 5587 5585 5583 5581
5719 5717 5715 5712 5709 5706 5702 5698 5694 5690 5685 5680 5675 5670 5665 5660 5655 5650 5645 5641 5636 5632 5627 5623 5619 5614 5610 5607 5603 5600 5597 5594 5591 5589 5587 5584 5582 5580 5578 5576 5573 5571 5569
5709 5707 5704 5700 5697 5693 5689 5685 5680 5675 5670 5665 5660 5655 5650 5645 5640 5635 5630 5626 5622 5618 5613 5609 5605 5601 5597 5593 5590 5587 5584 5581 5579 5577 5575 5572 5570 5569 5567 5565 5563 5561 5559
5698 5695 5692 5688 5684 5680 5676 5671 5666 5661 5656 5651 5646 5641 5636 5630 5626 5621 5617 5613 5609 5605 5600 5596 5593 5589 5585 5581 5578 5575 5573 5570 5568 5565 5564 5562 5560 5559 5557 5556 5554 5552 5550
5687 5683 5679 5675 5671 5667 5662 5657 5652 5647 5642 5637 5632 5627 5622 5617 5613 5609 5605 5601 5597 5593 5589 5585 5582 5578 5575 5572 5569 5566 5563 5561 5558 5556 5554 5553 5552 5551 5549 5547 5546 5544 5542
5675 5671 5667 5663 5658 5654 5649 5644 5639 5634 5629 5624 5619 5614 5610 5605 5601 5597 5594 5590 5586 5583 5579 5576 5572 5569 5566 5563 5561 5558 5555 5553 5551 5549 5547 5546 5545 5543 5542 5540 5539 5537 5535